Regional Weather Roundup
Issued by NWS

Home | Current Version | Previous Version | Graphics & Text | Print | Product List | Glossary Off
Versions: 1 2 3 4 5 6 7 8 9 10 11 12 13 14 15 16 17 18 19 20 21 22 23 24 25 26 27 28 29 30 31 32 33 34 35 36 37 38 39 40 41 42 43 44 45 46 47 48 49 50

000
ASUS43 KMKX 010911
RWRWI

WISCONSIN REGIONAL WEATHER ROUNDUP
NATIONAL WEATHER SERVICE MILWAUKEE/SULLIVAN WI
400 AM CDT WED JUL 01 2015

NOTE: "FAIR" INDICATES FEW OR NO CLOUDS BELOW 12,000 FEET WITH NO
SIGNIFICANT WEATHER AND/OR OBSTRUCTIONS TO VISIBILITY.

WIZ001-002-006>008-014>016-023>028-011000-
NORTHWEST WISCONSIN

CITY           SKY/WX    TMP DP  RH WIND       PRES   REMARKS
SUPERIOR ARPT  PTCLDY    44  44 100 CALM      30.00R FOG
ASHLAND        PTCLDY    42  42 100 SW3       30.00S
HAYWARD        CLEAR     44  42  93 N3        30.00S
SIREN          PTCLDY    47  46  93 CALM      30.00R
CUMBERLAND     CLEAR     48  46  93 CALM      30.00R
RICE LAKE      CLEAR     49  47  91 CALM      30.01R
CHETEK         CLEAR     52  47  82 E5        30.00R
LADYSMITH      CLEAR     45  43  93 CALM      30.01R
EAU CLAIRE     CLEAR     48  46  93 CALM      29.98R
MENOMONIE      CLEAR     52  50  91 CALM      30.00R
NEW RICHMOND   MOCLDY    54  52  94 E3        29.99S
OSCEOLA        CLOUDY    54  54 100 E3        30.01S
$$

WIZ003>005-009-010-017-018-011000-
NORTH CENTRAL WISCONSIN

CITY           SKY/WX    TMP DP  RH WIND       PRES   REMARKS
MANITOWISH WTR CLEAR     42  42 100 NE3       30.00R
ARBOR VITAE    CLEAR     43  42  94 N3        29.99R
WOODRUFF       CLEAR     43  42  94 N3        29.99R
RHINELANDER    CLEAR     43  42  97 CALM      29.98F
EAGLE RIVER    CLEAR     40  40 100 CALM      29.97F
LAND O LAKES   CLEAR     38  38 100 CALM      29.99F
PHILLIPS       PTCLDY    39  39 100 CALM      29.99R
TOMAHAWK       CLEAR     35  34  96 CALM      29.99S
MEDFORD        CLEAR     39  38  97 CALM      30.00R
MERRILL          N/A     39  39 100 CALM      29.99R FOG
$$

WIZ029-030-035-036-043>047-011000-
CENTRAL WISCONSIN

CITY           SKY/WX    TMP DP  RH WIND       PRES   REMARKS
WAUSAU         CLEAR     48  45  89 NW3       29.97R
MOSINEE        CLEAR     46  46 100 NW6       29.99R
MARSHFIELD     CLEAR     47  44  90 CALM      29.98R
STEVENS POINT  CLEAR     43  42  97 CALM      29.98S
WAUPACA        CLEAR     49  46  87 NW3       29.96S
WAUTOMA        CLEAR     47  47 100 CALM      29.97S
WISC RAPIDS    CLEAR     47  44  90 CALM      29.99R
CAMP DOUGLAS   FOG       43  43 100 W3        29.98R VSB 1/2
$$

WIZ011>013-019>022-031-037>040-048>050-011000-
NORTHEAST WISCONSIN

CITY           SKY/WX    TMP DP  RH WIND       PRES   REMARKS
ANTIGO         CLEAR     41  41  99 CALM      29.97S
SHAWANO        CLEAR     49  44  83 NW3       29.95S
OCONTO         MOCLDY    47  46  97 N6        29.93S
STURGEON BAY   CLOUDY    52  46  82 N8        29.94S
GREEN BAY      PTCLDY    49  45  86 N5        29.94S
MANITOWOC      CLOUDY    52  48  86 MISG      29.93S
APPLETON       CLEAR     46  43  87 NW6       29.95R
CLINTONVILLE   CLEAR     50  43  76 N5        29.95R
OSHKOSH        CLEAR     51  44  77 NW5       29.95R
$$

WIZ032>034-041-042-053>061-011000-
SOUTHWEST WISCONSIN

CITY           SKY/WX    TMP DP  RH WIND       PRES   REMARKS
LA CROSSE      CLEAR     54  49  83 N3        29.97R
SPARTA         CLEAR     43  43  99 CALM      29.99R FOG
VIROQUA        CLEAR     51  50  96 NE3       29.97S
BOSCOBEL       FOG       54  53  97 CALM      29.96S VSB 1/4
PRAIRIE DU CHI FOG       55  54  95 CALM      29.95S VSB 1/2
PLATTEVILLE    MOCLDY    54  52  95 N6        29.94F
$$

WIZ056-057-062-063-064-067-068-011000-
SOUTH CENTRAL WISCONSIN

CITY           SKY/WX    TMP DP  RH WIND       PRES   REMARKS
REEDSBURG      PTCLDY    55  52  90 NE3       29.96S
BARABOO/DELLS  CLEAR     53  46  76 NE3       29.97R
LONE ROCK      PTCLDY    56  53  90 CALM      29.96S
MINERAL POINT  CLEAR     55  54  94 N5        29.95S
MADISON        CLOUDY    59  47  64 NE8       29.94S
MIDDLETON      CLOUDY    59  48  65 NE9       29.95S
WATERTOWN      CLOUDY    55  55 100 CALM      29.94S
MONROE         CLOUDY    59  55  88 E5        29.94S
JANESVILLE     CLOUDY    57  55  94 CALM      29.94S
$$

WIZ051-052-058>065-066-070>072-011000-
SOUTHEAST WISCONSIN

CITY           SKY/WX    TMP DP  RH WIND       PRES   REMARKS
MILWAUKEE      CLOUDY    55  50  83 NW6       29.95R
WAUKESHA       CLOUDY    52  50  93 CALM      29.95S
MILWAUKEE/TIMM MOCLDY    52  46  82 CALM      29.95S
RACINE         CLOUDY    55  50  83 CALM      29.95S
BURLINGTON     MOCLDY    51  50  95 CALM      29.95R
KENOSHA        CLOUDY    53  50  89 CALM      29.95R
FOND DU LAC    PTCLDY    52  46  80 NW8       29.95R
SHEBOYGAN      PTCLDY    50  46  86 NW5       29.94R
WEST BEND      MOCLDY    50  46  87 NW3       29.95R
JUNEAU         CLOUDY    54  49  82 N5        29.96R
$$

LSZ147-162-011000-
LAKE SUPERIOR

STATION/POSITION TIME  TEMP    WIND        PRES    WAVE
                       AIR SEA DIR/SP/G            HT/PER
                 (UTC) (F)     (DEG/KT/KT) (MB)    (FT/S)
W MID LAKE BUOY  0850   41 38  140/  6/  6 1016.4F   1/ 5
DEVILS ISLAND    0900   53     140/  2/  3 1016.2R
SAXON HARBOR     0840   43        CALM     1015.6S
$$

LMZ867-665-643>646-011000-
LAKE MICHIGAN

STATION/POSITION TIME  TEMP    WIND        PRES    WAVE
                       AIR SEA DIR/SP/G            HT/PER
                 (UTC) (F)     (DEG/KT/KT) (MB)    (FT/S)
CHAMBERS ISLAND  0800   53     330/ 11/ 12 1013.2F
N MID LAKE BUOY  0850   46 41  310/ 10/ 12 1012.5R   2/ 4
NORTHPORT PIER   0800   52     340/ 15/ 19 1012.9F
SISTER BAY       0814   52      10/ 13/ 17   N/A
ALGOMA LAKESHORE 0840          320/  4/  6   N/A
KEWAUNEE LAKESHO 0800   55     340/  2/  6 1012.3F
SHEBOYGAN LAKESH 0900   53     290/  8/  9 1014.0R
PORT WASHINGTON  0840   53     300/  4/  7 1014.6R
ATWATER BUOY     0900   56     290/  6/ 10 1015.3R
MILWAUKEE LAKESH 0800   54      10/  3/  5   N/A
KENOSHA   LAKESH 0900   55     340/  6/  8 1013.9R
$$

TC  - TEMPERATURE IN CELSIUS
VSB - VISIBILITY IN STATUTE MILES
WCI - WIND CHILL INDEX
HX  - HEAT INDEX




USA.gov is the U.S. government's official web portal to all federal, state and local government web resources and services.